Disclaimer

Please do not use the information listed here in-flight or in-navigation, as they are not provided to us by the airports but are provided by volunteers, so they might be outdated.

Search


Regions


Airport information page

Radio informations:
Tower (TWR) - 118.1 MHz
Approach (APP) - 127.3 MHz

Airport informations:
Latitude: 36° 14' 06.70" N
Longitude: 059° 38' 27.50" E
Elevation: 3263 feet - 995 meters
Operating hours: 24 hour operations
Operating agency: Military-civil joint use airport
Timezone: UTC+3:30
Fuel: Jet A1, without icing nhibitor.

100/130 MIL Spec, low lead, aviation gasoline (BLUE)

Runway information:
14R/32L - 12877 x 148 feet< - >3925 x 45 meters
14L/32R - 12503 x 148 feet< - >3811 x 45 meters

Recent METARs:
OIMM 152230Z 00000KT 8000 NSC 05/01 Q1017 A3006
OIMM 152300Z 00000KT CAVOK 05/01 Q1017 A3006
OIMM 152330Z 01004KT CAVOK 05/01 Q1017 A3006

Airport on the map: